sat.trackr.live / text

‹ back to catalog

STARLINK-37925

NORAD 69962 · 2026-157V

PAYLOAD ACTIVE UNKNOWN

§ Identity

Operator
Country
US
Launch date
2026-07-09
Launch site
AFETR
Launch vehicle
Mass (kg)
RCS (m²)

Purposes: comms

External: N2YO · Heavens-Above · Gunter

§ Orbital elements

Epoch: 2026-09-20T04:33:14.851872Z

Period
93.85 min
Inclination
53.1553°
Eccentricity
0.0002500
Mean motion
15.34421526 rev/d
Perigee alt
460.9 km
Apogee alt
464.3 km
Semi-major
6,840.8 km
B*
6.2264e-4
RAAN
335.2783°
Arg perigee
80.2662°
Mean anomaly
279.8623°
Rev number
1,132

§ Raw data

STARLINK-379251 69962U 26157V   26263.18975523  .00020734  00000+0  62264-3 0  99902 69962  53.1553 335.2783 0002500  80.2662 279.8623 15.34421526 11325

JSON: /api/v1/satellites/69962 · /tle

For live sub-satellite position, see the globe view (requires WebGL).

§ Visibility from observer

Set your observer location to see the next 7 days of passes ≥ 10°. The values pass through the URL so the page stays shareable.

No JS? Fill the form by hand. The geolocation button needs JavaScript.